This demonstration page uses our WeatherBlox Daily Observations layout. Learn more.

Left ArrowRight Arrow

Hourly Observations for September 13, 2018

Temp ( °F °C ) Dew Point ( °F °C ) Humidity (%) Winds ( mph kmh ) Pressure ( in mb ) Visibility ( mi km ) Precip ( " mm )
12:53 am 00:53 Clear 62 16.7 61 16.1 96 96 Calm 30.16 1021 10 16 0.00 0.00
1:53 am 01:53 Mostly Clear 63 17.2 61 16.1 93 93 Calm 30.16 1021 10 16 0.00 0.00
2:53 am 02:53 Clear 63 17.2 61 16.1 93 93 Calm 30.16 1021 10 16 0.00 0.00
3:53 am 03:53 Clear 62 16.7 60 15.6 93 93 Calm 30.15 1021 9 14 0.00 0.00
4:53 am 04:53 Clear 62 16.7 61 16.1 96 96 Calm 30.15 1021 10 16 0.00 0.00
5:53 am 05:53 Partly Cloudy 63 17.2 61 16.1 93 93 Calm 30.15 1021 10 16 0.00 0.00
6:53 am 06:53 Mostly Cloudy with Mist and Fog 61 16.1 59 15 93 93 Calm 30.16 1021 6 10 0.00 0.00
7:35 am 07:35 Partly Cloudy with Mist and Fog 61 16.1 59 15 93 93 Calm 30.15 1021 6 10 0.00 0.00
7:53 am 07:53 Mostly Cloudy with Mist and Fog 61 16.1 60 15.6 97 97 Calm 30.17 1022 5 8 0.00 0.00
8:53 am 08:53 Mostly Cloudy 66 18.9 63 17.2 90 90 Calm 30.19 1023 8 13 0.00 0.00
9:27 am 09:27 Partly Cloudy 67 19.4 64 17.8 91 91 Calm 30.18 1022 9 14 0.00 0.00
9:53 am 09:53 Mostly Sunny 69 20.6 64 17.8 84 84 Calm 30.19 1023 10 16 0.00 0.00
10:53 am 10:53 Sunny 75 23.9 67 19.4 76 76 Calm 30.19 1022 10 16 0.00 0.00
11:53 am 11:53 Mostly Cloudy 78 25.6 67 19.4 69 69 Calm 30.18 1022 10 16 0.00 0.00
12:29 pm 12:29 Partly Cloudy 80 26.7 67 19.4 64 64 VRB 3 6 30.15 1021 10 16 0.00 0.00
12:53 pm 12:53 Sunny 80 26.7 66 18.9 62 62 VRB 3 6 30.17 1022 10 16 0.00 0.00
1:53 pm 13:53 Sunny 82 27.8 66 18.9 58 58 E 5 7 30.15 1021 10 16 0.00 0.00
2:53 pm 14:53 Sunny 83 28.3 64 17.8 53 53 Calm 30.12 1020 10 16 0.00 0.00
3:53 pm 15:53 Sunny 84 28.9 64 17.8 51 51 NW 6 9 30.10 1019 10 16 0.00 0.00
4:53 pm 16:53 Sunny 84 28.9 62 16.7 48 48 Calm 30.09 1019 10 16 0.00 0.00
5:53 pm 17:53 Sunny 85 29.4 66 18.9 53 53 Calm 30.09 1019 10 16 0.00 0.00
6:53 pm 18:53 Sunny 82 27.8 66 18.9 58 58 Calm 30.09 1019 10 16 0.00 0.00
7:53 pm 19:53 Clear 71 21.7 67 19.4 87 87 Calm 30.08 1019 10 16 0.00 0.00
8:53 pm 20:53 Clear 68 20 65 18.3 90 90 Calm 30.10 1019 10 16 0.00 0.00
9:53 pm 21:53 Clear 67 19.4 65 18.3 93 93 Calm 30.11 1020 10 16 0.00 0.00
10:53 pm 22:53 Clear 65 18.3 64 17.8 97 97 Calm 30.11 1020 10 16 0.00 0.00
11:53 pm 23:53 Clear with Mist and Fog 65 18.3 63 17.2 93 93 Calm 30.10 1019 6 10 0.00 0.00

Powered by AerisWeather